sat.trackr.live / text

‹ back to catalog

STARLINK-11410 [DTC]

NORAD 61946 · 2024-209H

PAYLOAD ACTIVE UNKNOWN

§ Identity

Operator
Country
US
Launch date
2024-11-14
Launch site
AFWTR
Launch vehicle
Mass (kg)
RCS (m²)

Purposes: comms

External: N2YO · Heavens-Above · Gunter

§ Orbital elements

Epoch: 2026-09-21T20:06:19.291392Z

Period
91.74 min
Inclination
53.1574°
Eccentricity
0.0001135
Mean motion
15.69708801 rev/d
Perigee alt
359.0 km
Apogee alt
360.5 km
Semi-major
6,737.9 km
B*
1.2038e-3
RAAN
124.4336°
Arg perigee
48.2414°
Mean anomaly
311.8701°
Rev number
10,752

§ Raw data

STARLINK-11410 [DTC]1 61946U 24209H   26264.83772328  .00147864  00000+0  12038-2 0  99982 61946  53.1574 124.4336 0001135  48.2414 311.8701 15.69708801107520

JSON: /api/v1/satellites/61946 · /tle

For live sub-satellite position, see the globe view (requires WebGL).

§ Visibility from observer

Set your observer location to see the next 7 days of passes ≥ 10°. The values pass through the URL so the page stays shareable.

No JS? Fill the form by hand. The geolocation button needs JavaScript.